EW6851 Weather Reports


Display with metric or nautical units.
time (UTC)temp
F
wind
direction
speed
MPH
gust
MPH
rain 1hr
in
rain 24hr
in
rain mn
in
humidity
%
barometer
mb
20260903193145 84 272 3.0 5.0 0.00 0.00 0.00 74 1016.5
20260903192642 84 315 3.0 5.0 0.00 0.00 0.00 74 1016.4
20260903192145 84 292 1.0 5.0 0.00 0.00 0.00 74 1016.3
20260903191642 84 287 2.0 6.0 0.00 0.00 0.00 74 1016.3
20260903191142 84 309 3.0 7.0 0.00 0.00 0.00 74 1016.3
20260903190642 84 269 5.0 7.0 0.00 0.00 0.00 74 1016.3
20260903190142 84 293 3.0 8.0 0.00 0.00 0.00 73 1016.3
20260903185651 84 272 5.0 8.0 0.00 0.00 0.00 73 1016.0
20260903185142 84 284 2.0 6.0 0.00 0.00 0.00 72 1016.0
20260903184642 84 248 3.0 8.0 0.00 0.00 0.00 72 1016.0
20260903184149 84 327 4.0 6.0 0.00 0.00 0.00 73 1016.0
20260903183642 84 287 4.0 6.0 0.00 0.00 0.00 73 1015.9
20260903183145 84 306 4.0 6.0 0.00 0.00 0.00 72 1015.8
20260903182645 84 275 3.0 5.0 0.00 0.00 0.00 72 1015.7
20260903182145 84 216 2.0 6.0 0.00 0.00 0.00 71 1015.7
20260903181645 84 313 3.0 3.0 0.00 0.00 0.00 70 1015.6
20260903181142 84 298 0.0 3.0 0.00 0.00 0.00 70 1015.5
20260903180642 84 295 3.0 5.0 0.00 0.00 0.00 70 1015.4
20260903180142 84 301 3.0 5.0 0.00 0.00 0.00 69 1015.4
20260903175645 84 257 3.0 4.0 0.00 0.00 0.00 69 1015.4
20260903175151 84 277 3.0 6.0 0.00 0.00 0.00 69 1015.3
20260903174645 84 269 0.0 4.0 0.00 0.00 0.00 69 1015.3
20260903174142 84 298 1.0 6.0 0.00 0.00 0.00 69 1015.2
20260903173642 85 272 3.0 8.0 0.00 0.00 0.00 68 1015.2
20260903173145 85 307 4.0 8.0 0.00 0.00 0.00 67 1015.1
20260903172642 85 300 4.0 6.0 0.00 0.00 0.00 67 1015.2
20260903172145 85 338 2.0 6.0 0.00 0.00 0.00 67 1015.2
20260903171645 85 334 2.0 8.0 0.00 0.00 0.00 67 1015.1
20260903171142 86 261 6.0 8.0 0.00 0.00 0.00 67 1015.1
20260903170648 86 306 7.0 9.0 0.00 0.00 0.00 66 1015.0
20260903170145 86 338 1.0 8.0 0.00 0.00 0.00 65 1015.0
20260903165642 86 315 5.0 6.0 0.00 0.00 0.00 65 1015.0
20260903165142 86 325 4.0 9.0 0.00 0.00 0.00 67 1015.0
20260903164648 87 270 5.0 7.0 0.00 0.00 0.00 67 1014.9
20260903164142 87 273 4.0 8.0 0.00 0.00 0.00 66 1014.9
20260903163651 87 297 5.0 5.0 0.00 0.00 0.00 68 1014.9
20260903163142 87 246 1.0 8.0 0.00 0.00 0.00 67 1014.9
20260903162642 87 305 5.0 8.0 0.00 0.00 0.00 66 1015.0
20260903162145 87 326 4.0 6.0 0.00 0.00 0.00 66 1015.0
20260903161645 87 253 1.0 7.0 0.00 0.00 0.00 66 1015.0
20260903161145 87 293 4.0 8.0 0.00 0.00 0.00 68 1015.0
20260903160645 87 277 2.0 8.0 0.00 0.00 0.00 67 1015.1
20260903160145 87 292 4.0 8.0 0.00 0.00 0.00 68 1015.0
20260903155642 87 5 7.0 10.0 0.00 0.00 0.00 68 1015.1
20260903155142 87 247 8.0 10.0 0.00 0.00 0.00 68 1015.1
20260903154645 87 327 3.0 7.0 0.00 0.00 0.00 67 1015.1
20260903154148 87 200 2.0 8.0 0.00 0.00 0.00 67 1015.1
20260903153646 87 294 9.0 9.0 0.00 0.00 0.00 67 1015.2
20260903153145 88 256 4.0 7.0 0.00 0.00 0.00 67 1015.2
20260903152645 87 270 2.0 8.0 0.00 0.00 0.00 68 1015.2
20260903152145 87 262 0.0 6.0 0.00 0.00 0.00 69 1015.1
20260903151642 87 325 1.0 7.0 0.00 0.00 0.00 68 1015.1
20260903151145 87 36 3.0 6.0 0.00 0.00 0.00 67 1015.0
20260903150645 88 271 3.0 7.0 0.00 0.00 0.00 67 1015.0
20260903150145 87 307 5.0 5.0 0.00 0.00 0.00 68 1015.0
20260903145651 87 25 3.0 11.0 0.00 0.00 0.00 68 1015.1
20260903145145 87 287 8.0 8.0 0.00 0.00 0.00 69 1015.2
20260903144642 87 16 4.0 9.0 0.00 0.00 0.00 67 1015.2
20260903144142 88 18 5.0 11.0 0.00 0.00 0.00 66 1015.2
20260903143642 88 334 7.0 10.0 0.00 0.00 0.00 67 1015.2
20260903143142 88 291 0.0 6.0 0.00 0.00 0.00 68 1015.3
20260903142648 88 5 3.0 7.0 0.00 0.00 0.00 66 1015.3
20260903142148 87 309 5.0 8.0 0.00 0.00 0.00 67 1015.3
20260903141642 87 269 7.0 9.0 0.00 0.00 0.00 68 1015.3
20260903141145 88 293 7.0 9.0 0.00 0.00 0.00 67 1015.3
20260903140645 87 252 3.0 7.0 0.00 0.00 0.00 68 1015.4
20260903140145 87 277 7.0 8.0 0.00 0.00 0.00 68 1015.4
20260903135645 87 355 9.0 9.0 0.00 0.00 0.00 69 1015.3
20260903135142 87 327 1.0 9.0 0.00 0.00 0.00 68 1015.4
20260903134648 87 244 5.0 8.0 0.00 0.00 0.00 67 1015.4
20260903134151 87 288 7.0 8.0 0.00 0.00 0.00 67 1015.5
20260903133642 88 265 1.0 8.0 0.00 0.00 0.00 67 1015.5
20260903133142 87 298 8.0 9.0 0.00 0.00 0.00 67 1015.5
20260903132642 87 296 7.0 10.0 0.00 0.00 0.00 68 1015.5
20260903132143 87 288 6.0 10.0 0.00 0.00 0.00 68 1015.5
20260903131648 87 253 2.0 8.0 0.00 0.00 0.00 67 1015.5
20260903131151 87 245 7.0 12.0 0.00 0.00 0.00 66 1015.5
20260903130643 87 282 5.0 10.0 0.00 0.00 0.00 65 1015.4
20260903130145 88 311 10.0 10.0 0.00 0.00 0.00 65 1015.5
20260903125645 88 268 8.0 11.0 0.00 0.00 0.00 65 1015.6
20260903125142 88 49 5.0 9.0 0.00 0.00 0.00 64 1015.6
20260903124642 88 286 6.0 10.0 0.00 0.00 0.00 65 1015.6
20260903124146 88 315 3.0 11.0 0.00 0.00 0.00 65 1015.6
20260903123643 88 290 10.0 12.0 0.00 0.00 0.00 65 1015.6
20260903123148 88 295 6.0 7.0 0.00 0.00 0.00 65 1015.6
20260903122646 88 287 2.0 12.0 0.00 0.00 0.00 64 1015.6
20260903122148 88 288 8.0 10.0 0.00 0.00 0.00 64 1015.6
20260903121645 88 326 4.0 12.0 0.00 0.00 0.00 63 1015.6
20260903121145 88 323 3.0 10.0 0.00 0.00 0.00 64 1015.6
20260903120643 88 284 5.0 10.0 0.00 0.00 0.00 65 1015.7
20260903120148 88 331 9.0 9.0 0.00 0.00 0.00 64 1015.7
20260903115643 88 247 1.0 9.0 0.00 0.00 0.00 64 1015.7
20260903115142 87 322 6.0 10.0 0.00 0.00 0.00 66 1015.6
20260903114642 87 331 4.0 11.0 0.00 0.00 0.00 64 1015.7
20260903114142 88 326 5.0 10.0 0.00 0.00 0.00 65 1015.7
20260903113648 88 306 6.0 12.0 0.00 0.00 0.00 64 1015.7
20260903113142 88 260 11.0 12.0 0.00 0.00 0.00 64 1015.8
20260903112645 88 302 5.0 12.0 0.00 0.00 0.00 64 1015.8
20260903112148 88 286 8.0 12.0 0.00 0.00 0.00 64 1015.8
20260903111649 88 343 4.0 10.0 0.00 0.00 0.00 62 1015.8
20260903111142 88 321 5.0 9.0 0.00 0.00 0.00 63 1015.8
20260903110642 88 309 8.0 10.0 0.00 0.00 0.00 61 1015.8
20260903110142 88 275 2.0 9.0 0.00 0.00 0.00 61 1015.7
20260903105642 88 343 6.0 9.0 0.00 0.00 0.00 61 1015.8
20260903105145 88 5 4.0 9.0 0.00 0.00 0.00 59 1015.8
20260903104642 88 355 7.0 9.0 0.00 0.00 0.00 60 1015.8
20260903104146 88 301 5.0 9.0 0.00 0.00 0.00 61 1015.8
20260903103646 88 298 7.0 10.0 0.00 0.00 0.00 60 1015.8
20260903103142 88 288 6.0 9.0 0.00 0.00 0.00 59 1015.9
20260903102642 88 324 3.0 11.0 0.00 0.00 0.00 58 1015.9
20260903102142 88 343 4.0 10.0 0.00 0.00 0.00 60 1015.9
20260903101642 88 307 4.0 10.0 0.00 0.00 0.00 60 1016.0
20260903101146 88 305 3.0 10.0 0.00 0.00 0.00 58 1016.1
20260903100649 88 288 7.0 8.0 0.00 0.00 0.00 59 1016.2
20260903100145 88 281 0.0 8.0 0.00 0.00 0.00 59 1016.1
20260903095643 88 321 2.0 9.0 0.00 0.00 0.00 59 1016.2
20260903095143 88 306 5.0 7.0 0.00 0.00 0.00 60 1016.3
20260903094649 88 326 5.0 7.0 0.00 0.00 0.00 59 1016.3
20260903094143 88 296 4.0 7.0 0.00 0.00 0.00 60 1016.4
20260903093643 88 277 2.0 7.0 0.00 0.00 0.00 60 1016.4
20260903093146 88 25 4.0 6.0 0.00 0.00 0.00 60 1016.4
20260903092646 88 300 3.0 5.0 0.00 0.00 0.00 60 1016.5
20260903092149 87 344 2.0 8.0 0.00 0.00 0.00 62 1016.5
20260903091643 87 299 5.0 6.0 0.00 0.00 0.00 62 1016.6
20260903091146 87 251 3.0 8.0 0.00 0.00 0.00 62 1016.5
20260903090646 87 302 3.0 7.0 0.00 0.00 0.00 64 1016.4
20260903090143 87 231 3.0 8.0 0.00 0.00 0.00 63 1016.5
20260903085646 87 209 3.0 9.0 0.00 0.00 0.00 62 1016.5
20260903085146 87 0 3.0 6.0 0.00 0.00 0.00 60 1016.5
20260903084643 87 330 1.0 7.0 0.00 0.00 0.00 60 1016.5
20260903084143 87 217 2.0 7.0 0.00 0.00 0.00 61 1016.5
20260903083646 87 213 3.0 6.0 0.00 0.00 0.00 61 1016.4
20260903083143 86 9 2.0 6.0 0.00 0.00 0.00 62 1016.4
20260903082643 86 331 3.0 6.0 0.00 0.00 0.00 63 1016.4
20260903082143 86 194 3.0 7.0 0.00 0.00 0.00 63 1016.4
20260903081646 86 258 4.0 7.0 0.00 0.00 0.00 64 1016.4
20260903081143 86 277 5.0 6.0 0.00 0.00 0.00 63 1016.3
20260903080649 86 215 5.0 5.0 0.00 0.00 0.00 63 1016.3
20260903080143 86 266 3.0 7.0 0.00 0.00 0.00 63 1016.3
20260903075652 86 285 3.0 7.0 0.00 0.00 0.00 64 1016.3
20260903075143 85 306 1.0 3.0 0.00 0.00 0.00 66 1016.2
20260903074643 85 267 2.0 5.0 0.00 0.00 0.00 66 1016.2
20260903074143 85 215 0.0 5.0 0.00 0.00 0.00 67 1016.2
20260903073646 85 228 1.0 7.0 0.00 0.00 0.00 68 1016.2
20260903073143 85 221 1.0 4.0 0.00 0.00 0.00 68 1016.2
20260903072643 84 266 2.0 4.0 0.00 0.00 0.00 69 1016.2
20260903072149 84 272 1.0 5.0 0.00 0.00 0.00 70 1016.3
20260903071643 84 278 3.0 6.0 0.00 0.00 0.00 71 1016.3
20260903071143 83 49 0.0 4.0 0.00 0.00 0.00 72 1016.3
20260903070649 83 188 0.0 4.0 0.00 0.00 0.00 73 1016.2
20260903070146 83 209 4.0 6.0 0.00 0.00 0.00 73 1016.2
20260903065646 83 186 2.0 5.0 0.00 0.00 0.00 73 1016.2
20260903065143 83 259 1.0 4.0 0.00 0.00 0.00 73 1016.2
20260903064646 83 214 0.0 5.0 0.00 0.00 0.00 73 1016.2
20260903064149 83 194 4.0 4.0 0.00 0.00 0.00 74 1016.2
20260903063643 82 200 2.0 5.0 0.00 0.00 0.00 74 1016.2
20260903063143 82 225 4.0 6.0 0.00 0.00 0.00 75 1016.3
20260903062646 82 196 3.0 4.0 0.00 0.00 0.00 75 1016.4
20260903062146 82 237 3.0 5.0 0.00 0.00 0.00 75 1016.3
20260903061643 81 184 1.0 5.0 0.00 0.00 0.00 76 1016.3
20260903061149 81 215 4.0 5.0 0.00 0.00 0.00 77 1016.4
20260903060643 81 196 0.0 3.0 0.00 0.00 0.00 79 1016.4
20260903060146 80 140 0.0 3.0 0.00 0.00 0.00 80 1016.4
20260903055643 79 170 1.0 3.0 0.00 0.00 0.00 81 1016.4
20260903055143 79 159 2.0 3.0 0.00 0.00 0.00 82 1016.4
20260903054643 78 161 3.0 3.0 0.00 0.00 0.00 83 1016.4
20260903054146 78 150 1.0 4.0 0.00 0.00 0.00 84 1016.3
20260903053643 77 117 0.0 4.0 0.00 0.00 0.00 84 1016.3
20260903053146 77 151 0.0 6.0 0.00 0.00 0.00 84 1016.2
20260903052649 77 176 3.0 5.0 0.00 0.00 0.00 84 1016.3
20260903052143 77 136 4.0 4.0 0.00 0.00 0.00 84 1016.2
20260903051652 77 175 3.0 5.0 0.00 0.00 0.00 84 1016.2
20260903051146 77 142 0.0 5.0 0.00 0.00 0.00 84 1016.2
20260903050643 77 131 3.0 4.0 0.00 0.00 0.00 84 1016.2
20260903050143 77 150 2.0 4.0 0.00 0.00 0.00 84 1016.2
20260903045646 77 184 0.0 4.0 0.00 0.00 0.00 84 1016.1
20260903045149 77 163 1.0 6.0 0.00 0.00 0.00 84 1016.1
20260903044643 77 128 4.0 5.0 0.00 0.00 0.00 84 1016.0
20260903044144 77 158 1.0 5.0 0.00 0.00 0.00 84 1016.0
20260903043646 77 163 4.0 5.0 0.00 0.00 0.00 84 1016.0
20260903043146 77 162 0.0 4.0 0.00 0.00 0.00 84 1016.0
20260903042649 77 171 3.0 5.0 0.00 0.00 0.00 84 1016.0
20260903042146 77 158 2.0 5.0 0.00 0.00 0.00 84 1016.0
20260903041643 77 175 1.0 5.0 0.00 0.00 0.00 83 1015.9
20260903041149 77 156 3.0 5.0 0.00 0.00 0.00 83 1016.0
20260903040646 77 118 4.0 5.0 0.00 0.00 0.00 83 1016.0
20260903040143 77 137 3.0 7.0 0.00 0.00 0.00 83 1016.0
20260903035643 77 130 2.0 6.0 0.00 0.00 0.00 83 1016.0
20260903035146 77 73 0.0 6.0 0.00 0.00 0.00 83 1016.0
20260903034643 77 151 1.0 5.0 0.00 0.00 0.00 83 1015.9
20260903034146 77 183 0.0 6.0 0.00 0.00 0.00 83 1015.9
20260903033649 77 138 1.0 7.0 0.00 0.00 0.00 83 1015.9
20260903033146 78 147 1.0 5.0 0.00 0.00 0.00 82 1015.9
20260903032643 78 136 2.0 6.0 0.00 0.00 0.00 82 1016.0
20260903032146 78 167 5.0 6.0 0.00 0.00 0.00 82 1016.0
20260903031644 78 355 1.0 2.0 0.00 0.00 0.00 82 1016.0
20260903031146 78 178 1.0 5.0 0.00 0.00 0.00 82 1016.1
20260903030646 78 171 3.0 4.0 0.00 0.00 0.00 82 1016.1
20260903030143 78 180 0.0 3.0 0.00 0.00 0.00 82 1016.1
20260903025646 78 180 1.0 3.0 0.00 0.00 0.00 82 1016.1
20260903025143 78 196 0.0 4.0 0.00 0.00 0.00 82 1016.1
20260903024652 78 136 2.0 5.0 0.00 0.00 0.00 83 1016.2
20260903024146 77 184 1.0 5.0 0.00 0.00 0.00 83 1016.2
20260903023649 77 198 4.0 5.0 0.00 0.00 0.00 82 1016.3
20260903023152 77 163 2.0 6.0 0.00 0.00 0.00 82 1016.3
20260903022643 77 121 1.0 5.0 0.00 0.00 0.00 82 1016.3
20260903022143 78 118 3.0 6.0 0.00 0.00 0.00 82 1016.4
20260903021643 78 188 5.0 6.0 0.00 0.00 0.00 82 1016.4
20260903021143 78 188 0.0 5.0 0.00 0.00 0.00 82 1016.4
20260903020646 78 145 2.0 4.0 0.00 0.00 0.00 82 1016.5
20260903020143 78 155 0.0 5.0 0.00 0.00 0.00 82 1016.5
20260903015640 78 117 1.0 6.0 0.00 0.00 0.00 82 1016.5
20260903015143 78 163 0.0 6.0 0.00 0.00 0.00 82 1016.6
20260903014641 78 160 1.0 8.0 0.00 0.00 0.00 81 1016.5
20260903014143 78 118 4.0 7.0 0.00 0.00 0.00 81 1016.5
20260903013640 78 159 3.0 5.0 0.00 0.00 0.00 81 1016.5
20260903013146 78 101 3.0 5.0 0.00 0.00 0.00 81 1016.6
20260903012644 78 138 0.0 6.0 0.00 0.00 0.00 81 1016.5
20260903012143 78 168 3.0 6.0 0.00 0.00 0.00 81 1016.5
20260903011641 78 130 2.0 5.0 0.00 0.00 0.00 81 1016.6
20260903011140 78 123 2.0 5.0 0.00 0.00 0.00 81 1016.5
20260903010644 78 147 0.0 3.0 0.00 0.00 0.00 81 1016.6
20260903010140 78 149 1.0 4.0 0.00 0.00 0.00 81 1016.6
20260903005646 78 155 0.0 5.0 0.00 0.00 0.00 81 1016.6
20260903005140 78 111 1.0 5.0 0.00 0.00 0.00 81 1016.7
20260903004646 78 136 2.0 6.0 0.00 0.00 0.00 81 1016.7
20260903004140 78 152 3.0 6.0 0.00 0.00 0.00 81 1016.8
20260903003643 78 139 4.0 6.0 0.00 0.00 0.00 80 1016.9
20260903003140 79 155 2.0 3.0 0.00 0.00 0.00 80 1016.8
20260903002644 79 136 0.0 3.0 0.00 0.00 0.00 80 1016.7
20260903002146 79 136 0.0 3.0 0.00 0.00 0.00 80 1016.8
20260903001644 79 128 0.0 4.0 0.00 0.00 0.00 80 1016.8
20260903001141 79 174 0.0 4.0 0.00 0.00 0.00 80 1016.9
20260903000640 79 157 1.0 6.0 0.00 0.00 0.00 81 1016.9
20260903000147 79 149 3.0 5.0 0.00 0.00 0.00 80 1017.0
20260902235641 79 147 4.0 7.0 0.00 0.00 0.00 80 1017.0
20260902235144 79 146 1.0 5.0 0.00 0.00 0.00 80 1017.1
20260902234641 79 84 2.0 5.0 0.00 0.00 0.00 80 1017.1
20260902234150 79 148 1.0 5.0 0.00 0.00 0.00 80 1017.1
20260902233644 79 101 0.0 4.0 0.00 0.00 0.00 80 1017.1
20260902233141 79 161 2.0 4.0 0.00 0.00 0.00 80 1017.0
20260902232650 79 150 2.0 5.0 0.00 0.00 0.00 80 1017.1
20260902232144 79 121 3.0 7.0 0.00 0.00 0.00 80 1017.0
20260902231647 79 165 3.0 8.0 0.00 0.00 0.00 80 1017.0
20260902231141 79 164 1.0 8.0 0.00 0.00 0.00 79 1017.0
20260902230641 80 177 3.0 5.0 0.00 0.00 0.00 79 1017.1
20260902230147 80 211 1.0 6.0 0.00 0.00 0.00 79 1017.1
20260902225641 80 182 2.0 3.0 0.00 0.00 0.00 79 1017.2
20260902225141 80 157 2.0 3.0 0.00 0.00 0.00 79 1017.2
20260902224641 80 167 2.0 4.0 0.00 0.00 0.00 79 1017.2
20260902224141 80 131 1.0 4.0 0.00 0.00 0.00 79 1017.2
20260902223641 80 146 2.0 4.0 0.00 0.00 0.00 78 1017.2
20260902223141 80 138 0.0 3.0 0.00 0.00 0.00 78 1017.2
20260902222644 80 134 2.0 5.0 0.00 0.00 0.00 78 1017.1
20260902222141 80 127 5.0 6.0 0.00 0.00 0.00 78 1017.1
20260902221644 81 168 2.0 6.0 0.00 0.00 0.00 78 1017.1
20260902221141 81 165 2.0 5.0 0.00 0.00 0.00 77 1017.2
20260902220644 81 146 0.0 4.0 0.00 0.00 0.00 77 1017.2
20260902220141 81 176 0.0 5.0 0.00 0.00 0.00 77 1017.2
20260902215641 81 167 0.0 6.0 0.00 0.00 0.00 76 1017.3
20260902215150 82 160 2.0 3.0 0.00 0.00 0.00 76 1017.3
20260902214641 82 142 0.0 2.0 0.00 0.00 0.00 76 1017.3
20260902214141 82 149 0.0 3.0 0.00 0.00 0.00 75 1017.4
20260902213644 82 179 0.0 3.0 0.00 0.00 0.00 75 1017.4
20260902213141 82 205 0.0 0.0 0.00 0.00 0.00 75 1017.4
20260902212650 82 205 0.0 3.0 0.00 0.00 0.00 75 1017.3
20260902212144 82 186 0.0 3.0 0.00 0.00 0.00 75 1017.2
20260902211641 82 190 1.0 3.0 0.00 0.00 0.00 74 1017.2
20260902211144 83 209 2.0 3.0 0.00 0.00 0.00 74 1017.3
20260902210644 83 202 3.0 4.0 0.00 0.00 0.00 74 1017.2
20260902210144 83 223 2.0 4.0 0.00 0.00 0.00 74 1017.2
20260902205641 83 194 3.0 3.0 0.00 0.00 0.00 74 1017.2
20260902205141 83 198 2.0 5.0 0.00 0.00 0.00 73 1017.2
20260902204648 83 230 3.0 6.0 0.00 0.00 0.00 73 1017.2
20260902204141 83 292 1.0 4.0 0.00 0.00 0.00 73 1017.2
20260902203644 83 296 0.0 0.0 0.00 0.00 0.00 73 1017.2
20260902203144 83 279 0.0 0.0 0.00 0.00 0.00 73 1017.3
20260902202641 83 287 0.0 3.0 0.00 0.00 0.00 74 1017.2
20260902202144 83 269 2.0 3.0 0.00 0.00 0.00 74 1017.3
20260902201650 83 326 0.0 3.0 0.00 0.00 0.00 74 1017.3
20260902201141 83 339 0.0 4.0 0.00 0.00 0.00 74 1017.3
20260902200641 83 309 2.0 4.0 0.00 0.00 0.00 74 1017.4
20260902200141 83 331 3.0 5.0 0.00 0.00 0.00 74 1017.4
20260902195641 83 314 3.0 5.0 0.00 0.00 0.00 74 1017.5
20260902195150 83 315 2.0 6.0 0.00 0.00 0.00 74 1017.5
20260902194641 83 315 5.0 5.0 0.00 0.00 0.00 74 1017.5
20260902194144 83 313 2.0 5.0 0.00 0.00 0.00 74 1017.6
20260902193641 83 290 2.0 5.0 0.00 0.00 0.00 73 1017.5